ARIANE 5 DEB [SYLDA] (52905 NORAD) Tracking and Keplerian Element Data

This shows tracking and keplerian element data for the satellite.

Feedback or suggestion? Click here.




ElementValue
Catalog52905
NameARIANE 5 DEB [SYLDA]
Epoch Orbit41
Epoch Day192.90073363
Epoch Year2022
RAAN57.8176
Inclination6.0751
Eccentricity0.7271409
Argument of Perigee193.5421
Mean Anonmoly123.9299
Mean Motion2.28712629
Decay Rate0.00018998
L11 52905U 22067C 22192.90073363 .00018998 00000+0 67390-2 0 9996
L22 52905 6.0751 57.8176 7271409 193.5421 123.9299 2.28712629 410

Live tracking and technical data element details for ARIANE 5 DEB [SYLDA] (NORAD 52905). ARIANE 5 DEB [SYLDA] can be tracked NOW for your location showing map with azimuth and elevation plus other details from your city location.

Track the satellite on the map from your city or location and see movement details for azimuth, elevation, latitude, longitude, range, height, and movement on the map or in text.







IsCatalogInMostPopularTable: catalog: 52905, numindb: 6
Update: records affected: 1



GetName: 52905 ARIANE 5 DEB [SYLDA]

Hit Count: updated at: Thu, 06 Oct 2022 05:28:04 GMT